Time,TemperatureF,DewpointF,PressureIn,WindDirection,WindDirectionDegrees,WindSpeedMPH,WindSpeedGustMPH,Humidity,HourlyPrecipIn,Conditions,Clouds,dailyrainin,SoftwareType,DateUTC
2013-06-14 00:02:00,61.0,51.0,-100.00,SSE,166,13.0,17.0,71,-99.99,,,-99.99,,2013-06-14 05:02:00,
2013-06-14 00:11:00,59.0,52.0,-100.00,SSE,163,12.0,20.0,79,-99.99,,,-99.99,,2013-06-14 05:11:00,
2013-06-14 00:22:00,59.0,54.0,-100.00,South,172,10.0,17.0,82,-99.99,,,-99.99,,2013-06-14 05:22:00,
2013-06-14 00:34:00,57.0,53.0,-100.00,South,174,11.0,15.0,87,-99.99,,,-99.99,,2013-06-14 05:34:00,
2013-06-14 00:43:00,57.0,54.0,-100.00,South,171,12.0,18.0,90,-99.99,,,-99.99,,2013-06-14 05:43:00,
2013-06-14 00:52:00,57.0,55.0,-100.00,SSE,162,11.0,15.0,91,-99.99,,,-99.99,,2013-06-14 05:52:00,
2013-06-14 01:02:00,57.0,55.0,-100.00,South,179,11.0,12.0,93,-99.99,,,-99.99,,2013-06-14 06:02:00,
2013-06-14 01:12:00,57.0,56.0,-100.00,South,189,3.0,8.0,96,-99.99,,,-99.99,,2013-06-14 06:12:00,
2013-06-14 01:22:00,57.0,57.0,-100.00,SSE,167,11.0,14.0,100,-99.99,,,-99.99,,2013-06-14 06:22:00,
2013-06-14 01:33:00,57.0,57.0,-100.00,SSE,161,10.0,15.0,100,-99.99,,,-99.99,,2013-06-14 06:33:00,
2013-06-14 01:43:00,57.0,57.0,-100.00,South,179,5.0,8.0,100,-99.99,,,-99.99,,2013-06-14 06:43:00,
2013-06-14 01:52:00,57.0,57.0,-100.00,South,174,6.0,8.0,100,-99.99,,,-99.99,,2013-06-14 06:52:00,
2013-06-14 02:02:00,57.0,57.0,-100.00,SSE,162,6.0,7.0,100,-99.99,,,-99.99,,2013-06-14 07:02:00,
2013-06-14 02:12:00,57.0,57.0,-100.00,SSE,166,7.0,9.0,100,-99.99,,,-99.99,,2013-06-14 07:12:00,
2013-06-14 02:22:00,59.0,56.0,-100.00,SSW,194,9.0,12.0,90,-99.99,,,-99.99,,2013-06-14 07:22:00,
2013-06-14 02:33:00,59.0,55.0,-100.00,SW,227,3.0,7.0,87,-99.99,,,-99.99,,2013-06-14 07:33:00,
2013-06-14 02:43:00,59.0,56.0,-100.00,West,264,6.0,8.0,91,-99.99,,,-99.99,,2013-06-14 07:43:00,
2013-06-14 02:53:00,59.0,54.0,-100.00,SW,228,9.0,12.0,83,-99.99,,,-99.99,,2013-06-14 07:53:00,
2013-06-14 03:02:00,59.0,54.0,-100.00,SW,226,9.0,10.0,82,-99.99,,,-99.99,,2013-06-14 08:02:00,
2013-06-14 03:12:00,61.0,56.0,-100.00,SW,226,9.0,13.0,83,-99.99,,,-99.99,,2013-06-14 08:12:00,
2013-06-14 03:22:00,61.0,55.0,-100.00,SW,218,9.0,11.0,80,-99.99,,,-99.99,,2013-06-14 08:22:00,
2013-06-14 03:33:00,61.0,54.0,-100.00,SW,221,7.0,10.0,78,-99.99,,,-99.99,,2013-06-14 08:33:00,
2013-06-14 03:43:00,61.0,53.0,-100.00,SSW,209,7.0,11.0,75,-99.99,,,-99.99,,2013-06-14 08:43:00,
2013-06-14 03:53:00,61.0,53.0,-100.00,SW,222,4.0,7.0,76,-99.99,,,-99.99,,2013-06-14 08:53:00,
2013-06-14 04:02:00,61.0,53.0,-100.00,SW,228,6.0,7.0,75,-99.99,,,-99.99,,2013-06-14 09:02:00,
2013-06-14 04:12:00,61.0,53.0,-100.00,SW,218,6.0,8.0,75,-99.99,,,-99.99,,2013-06-14 09:12:00,
2013-06-14 04:22:00,61.0,52.0,-100.00,South,170,4.0,6.0,74,-99.99,,,-99.99,,2013-06-14 09:22:00,
2013-06-14 04:33:00,61.0,53.0,-100.00,South,185,3.0,6.0,76,-99.99,,,-99.99,,2013-06-14 09:33:00,
2013-06-14 04:43:00,61.0,53.0,-100.00,SSW,208,6.0,8.0,76,-99.99,,,-99.99,,2013-06-14 09:43:00,
2013-06-14 04:53:00,61.0,53.0,-100.00,South,169,4.0,5.0,75,-99.99,,,-99.99,,2013-06-14 09:53:00,
2013-06-14 05:01:00,61.0,54.0,-100.00,ESE,123,3.0,4.0,78,-99.99,,,-99.99,,2013-06-14 10:01:00,
2013-06-14 05:11:00,59.0,53.0,-100.00,SE,128,3.0,4.0,81,-99.99,,,-99.99,,2013-06-14 10:11:00,
2013-06-14 05:22:00,61.0,55.0,-100.00,SW,224,2.0,3.0,80,-99.99,,,-99.99,,2013-06-14 10:22:00,
2013-06-14 05:34:00,61.0,54.0,-100.00,SSW,202,2.0,2.0,79,-99.99,,,-99.99,,2013-06-14 10:34:00,
2013-06-14 05:43:00,61.0,55.0,-100.00,ESE,110,1.0,2.0,81,-99.99,,,-99.99,,2013-06-14 10:43:00,
2013-06-14 05:52:00,59.0,53.0,-100.00,SSE,148,0.0,2.0,81,-99.99,,,-99.99,,2013-06-14 10:52:00,
2013-06-14 06:02:00,59.0,53.0,-100.00,SW,225,3.0,4.0,80,-99.99,,,-99.99,,2013-06-14 11:02:00,
2013-06-14 06:11:00,59.0,52.0,-100.00,WSW,243,3.0,5.0,79,-99.99,,,-99.99,,2013-06-14 11:11:00,
2013-06-14 06:22:00,59.0,53.0,-100.00,SSE,163,2.0,3.0,80,-99.99,,,-99.99,,2013-06-14 11:22:00,
2013-06-14 06:32:00,59.0,54.0,-100.00,South,171,3.0,7.0,85,-99.99,,,-99.99,,2013-06-14 11:32:00,
2013-06-14 06:43:00,59.0,55.0,-100.00,SSE,160,3.0,4.0,88,-99.99,,,-99.99,,2013-06-14 11:43:00,
2013-06-14 06:52:00,59.0,55.0,-100.00,SE,130,1.0,2.0,88,-99.99,,,-99.99,,2013-06-14 11:52:00,
2013-06-14 07:01:00,59.0,55.0,-100.00,SSE,154,3.0,3.0,87,-99.99,,,-99.99,,2013-06-14 12:01:00,
2013-06-14 07:11:00,59.0,55.0,-100.00,SSE,151,2.0,4.0,87,-99.99,,,-99.99,,2013-06-14 12:11:00,
2013-06-14 07:22:00,59.0,55.0,-100.00,SSE,150,0.0,4.0,87,-99.99,,,-99.99,,2013-06-14 12:22:00,
2013-06-14 07:32:00,59.0,55.0,-100.00,NE,47,2.0,2.0,86,-99.99,,,-99.99,,2013-06-14 12:32:00,
2013-06-14 07:43:00,59.0,54.0,-100.00,NE,42,1.0,2.0,84,-99.99,,,-99.99,,2013-06-14 12:43:00,
2013-06-14 07:52:00,59.0,54.0,-100.00,North,0,1.0,2.0,84,-99.99,,,-99.99,,2013-06-14 12:52:00,
2013-06-14 08:02:00,59.0,54.0,-100.00,ENE,60,0.0,2.0,82,-99.99,,,-99.99,,2013-06-14 13:02:00,
2013-06-14 08:11:00,61.0,55.0,-100.00,SE,141,2.0,3.0,82,-99.99,,,-99.99,,2013-06-14 13:11:00,
2013-06-14 08:22:00,61.0,56.0,-100.00,SSE,154,2.0,3.0,83,-99.99,,,-99.99,,2013-06-14 13:22:00,
2013-06-14 08:33:00,59.0,55.0,-100.00,South,171,1.0,2.0,87,-99.99,,,-99.99,,2013-06-14 13:33:00,
2013-06-14 08:43:00,61.0,56.0,-100.00,South,181,1.0,2.0,85,-99.99,,,-99.99,,2013-06-14 13:43:00,
2013-06-14 08:52:00,61.0,55.0,-100.00,NW,311,1.0,2.0,81,-99.99,,,-99.99,,2013-06-14 13:52:00,
2013-06-14 09:02:00,61.0,55.0,-100.00,NW,315,0.0,1.0,80,-99.99,,,-99.99,,2013-06-14 14:02:00,
2013-06-14 09:11:00,63.0,56.0,-100.00,WSW,240,0.0,18.0,79,-99.99,,,-99.99,,2013-06-14 14:11:00,
2013-06-14 09:22:00,63.0,55.0,-100.00,South,179,2.0,5.0,77,-99.99,,,-99.99,,2013-06-14 14:22:00,
2013-06-14 09:34:00,64.0,56.0,-100.00,SE,140,3.0,5.0,75,-99.99,,,-99.99,,2013-06-14 14:34:00,
2013-06-14 09:43:00,63.0,55.0,-100.00,South,182,1.0,3.0,76,-99.99,,,-99.99,,2013-06-14 14:43:00,
2013-06-14 09:52:00,66.0,56.0,-100.00,SSW,204,1.0,4.0,70,-99.99,,,-99.99,,2013-06-14 14:52:00,
2013-06-14 10:01:00,66.0,55.0,-100.00,SW,222,3.0,4.0,67,-99.99,,,-99.99,,2013-06-14 15:01:00,
2013-06-14 10:11:00,66.0,54.0,-100.00,West,276,3.0,5.0,66,-99.99,,,-99.99,,2013-06-14 15:11:00,
2013-06-14 10:23:00,64.0,52.0,-100.00,WSW,256,5.0,8.0,64,-99.99,,,-99.99,,2013-06-14 15:23:00,
2013-06-14 10:33:00,66.0,52.0,-100.00,WNW,288,1.0,5.0,61,-99.99,,,-99.99,,2013-06-14 15:33:00,
2013-06-14 10:44:00,68.0,53.0,-100.00,NW,307,3.0,5.0,58,-99.99,,,-99.99,,2013-06-14 15:44:00,
2013-06-14 10:52:00,68.0,53.0,-100.00,NW,304,1.0,4.0,59,-99.99,,,-99.99,,2013-06-14 15:52:00,
2013-06-14 11:01:00,66.0,52.0,-100.00,West,263,3.0,4.0,60,-99.99,,,-99.99,,2013-06-14 16:01:00,
2013-06-14 11:11:00,66.0,53.0,-100.00,WNW,296,3.0,7.0,62,-99.99,,,-99.99,,2013-06-14 16:11:00,
2013-06-14 11:22:00,66.0,53.0,-100.00,WNW,301,1.0,3.0,62,-99.99,,,-99.99,,2013-06-14 16:22:00,
2013-06-14 11:32:00,66.0,54.0,-100.00,West,278,2.0,7.0,64,-99.99,,,-99.99,,2013-06-14 16:32:00,
2013-06-14 11:43:00,66.0,54.0,-100.00,West,268,1.0,3.0,66,-99.99,,,-99.99,,2013-06-14 16:43:00,
2013-06-14 11:52:00,66.0,56.0,-100.00,ESE,120,2.0,6.0,69,-99.99,,,-99.99,,2013-06-14 16:52:00,
2013-06-14 12:02:00,63.0,56.0,-100.00,ESE,121,11.0,12.0,79,-99.99,,,-99.99,,2013-06-14 17:02:00,
2013-06-14 12:11:00,61.0,56.0,-100.00,SE,128,5.0,10.0,84,-99.99,,,-99.99,,2013-06-14 17:11:00,
2013-06-14 12:22:00,59.0,57.0,-100.00,SE,145,1.0,4.0,94,-99.99,,,-99.99,,2013-06-14 17:22:00,
2013-06-14 12:34:00,61.0,58.0,-100.00,NE,53,4.0,7.0,92,-99.99,,,-99.99,,2013-06-14 17:34:00,
2013-06-14 12:43:00,59.0,58.0,-100.00,East,92,1.0,2.0,96,-99.99,,,-99.99,,2013-06-14 17:43:00,
2013-06-14 12:53:00,61.0,57.0,-100.00,ENE,73,1.0,2.0,86,-99.99,,,-99.99,,2013-06-14 17:53:00,
2013-06-14 13:02:00,61.0,57.0,-100.00,NW,321,1.0,2.0,86,-99.99,,,-99.99,,2013-06-14 18:02:00,
2013-06-14 13:11:00,61.0,55.0,-100.00,NNW,338,5.0,7.0,81,-99.99,,,-99.99,,2013-06-14 18:11:00,
2013-06-14 13:22:00,61.0,54.0,-100.00,North,350,3.0,5.0,79,-99.99,,,-99.99,,2013-06-14 18:22:00,
2013-06-14 13:32:00,63.0,57.0,-100.00,NE,36,2.0,4.0,82,-99.99,,,-99.99,,2013-06-14 18:32:00,
2013-06-14 13:42:00,64.0,58.0,-100.00,ENE,63,3.0,4.0,81,-99.99,,,-99.99,,2013-06-14 18:42:00,
2013-06-14 13:52:00,64.0,57.0,-100.00,NE,56,4.0,5.0,78,-99.99,,,-99.99,,2013-06-14 18:52:00,
2013-06-14 14:01:00,66.0,59.0,-100.00,ENE,59,4.0,5.0,77,-99.99,,,-99.99,,2013-06-14 19:01:00,
2013-06-14 14:11:00,68.0,57.0,-100.00,East,91,3.0,7.0,69,-99.99,,,-99.99,,2013-06-14 19:11:00,
2013-06-14 14:21:00,68.0,58.0,-100.00,ENE,76,5.0,9.0,71,-99.99,,,-99.99,,2013-06-14 19:21:00,
2013-06-14 14:32:00,70.0,62.0,-100.00,ENE,70,6.0,12.0,76,-99.99,,,-99.99,,2013-06-14 19:32:00,
2013-06-14 14:43:00,68.0,61.0,-100.00,East,92,10.0,16.0,77,-99.99,,,-99.99,,2013-06-14 19:43:00,
2013-06-14 14:53:00,68.0,60.0,-100.00,East,90,9.0,14.0,76,-99.99,,,-99.99,,2013-06-14 19:53:00,
2013-06-14 15:01:00,68.0,59.0,-100.00,ENE,76,9.0,12.0,72,-99.99,,,-99.99,,2013-06-14 20:01:00,
2013-06-14 15:11:00,68.0,59.0,-100.00,ENE,77,11.0,18.0,73,-99.99,,,-99.99,,2013-06-14 20:11:00,
2013-06-14 15:22:00,68.0,59.0,-100.00,ENE,73,11.0,19.0,72,-99.99,,,-99.99,,2013-06-14 20:22:00,
2013-06-14 15:33:00,66.0,58.0,-100.00,ENE,71,11.0,17.0,75,-99.99,,,-99.99,,2013-06-14 20:33:00,
2013-06-14 15:43:00,66.0,58.0,-100.00,East,87,8.0,14.0,76,-99.99,,,-99.99,,2013-06-14 20:43:00,
2013-06-14 15:53:00,66.0,60.0,-100.00,ESE,103,12.0,18.0,81,-99.99,,,-99.99,,2013-06-14 20:53:00,
2013-06-14 16:02:00,64.0,60.0,-100.00,ESE,106,15.0,18.0,86,-99.99,,,-99.99,,2013-06-14 21:02:00,
2013-06-14 16:11:00,64.0,60.0,-100.00,ESE,104,12.0,19.0,86,-99.99,,,-99.99,,2013-06-14 21:11:00,
2013-06-14 16:22:00,63.0,61.0,-100.00,SE,127,14.0,21.0,95,-99.99,,,-99.99,,2013-06-14 21:22:00,
2013-06-14 16:34:00,61.0,60.0,-100.00,SE,127,14.0,19.0,96,-99.99,,,-99.99,,2013-06-14 21:34:00,
2013-06-14 16:42:00,61.0,61.0,-100.00,SE,146,8.0,16.0,100,-99.99,,,-99.99,,2013-06-14 21:42:00,
2013-06-14 16:52:00,61.0,61.0,-100.00,SSE,161,7.0,11.0,100,-99.99,,,-99.99,,2013-06-14 21:52:00,
2013-06-14 17:01:00,61.0,61.0,-100.00,South,173,7.0,8.0,100,-99.99,,,-99.99,,2013-06-14 22:01:00,
2013-06-14 17:11:00,61.0,61.0,-100.00,SSE,151,7.0,9.0,100,-99.99,,,-99.99,,2013-06-14 22:11:00,
2013-06-14 17:22:00,61.0,61.0,-100.00,SSE,159,7.0,12.0,100,-99.99,,,-99.99,,2013-06-14 22:22:00,
2013-06-14 17:33:00,61.0,61.0,-100.00,South,169,8.0,13.0,100,-99.99,,,-99.99,,2013-06-14 22:33:00,
2013-06-14 17:43:00,61.0,61.0,-100.00,SSE,162,8.0,14.0,100,-99.99,,,-99.99,,2013-06-14 22:43:00,
2013-06-14 17:53:00,61.0,61.0,-100.00,SSE,154,6.0,10.0,100,-99.99,,,-99.99,,2013-06-14 22:53:00,
2013-06-14 18:01:00,61.0,61.0,-100.00,SE,142,3.0,8.0,100,-99.99,,,-99.99,,2013-06-14 23:01:00,
2013-06-14 18:11:00,63.0,63.0,-100.00,SSE,160,7.0,12.0,100,-99.99,,,-99.99,,2013-06-14 23:11:00,
2013-06-14 18:22:00,63.0,63.0,-100.00,SE,141,8.0,11.0,100,-99.99,,,-99.99,,2013-06-14 23:22:00,
2013-06-14 18:33:00,63.0,63.0,-100.00,SSE,163,6.0,9.0,100,-99.99,,,-99.99,,2013-06-14 23:33:00,
2013-06-14 18:43:00,64.0,64.0,-100.00,South,169,4.0,7.0,98,-99.99,,,-99.99,,2013-06-14 23:43:00,
2013-06-14 18:52:00,64.0,61.0,-100.00,SSE,165,7.0,18.0,88,-99.99,,,-99.99,,2013-06-14 23:52:00,
2013-06-14 19:01:00,64.0,61.0,-100.00,South,174,6.0,11.0,90,-99.99,,,-99.99,,2013-06-15 00:01:00,
2013-06-14 19:11:00,64.0,62.0,-100.00,SSE,164,8.0,12.0,91,-99.99,,,-99.99,,2013-06-15 00:11:00,
2013-06-14 19:22:00,64.0,59.0,-100.00,SSE,155,4.0,6.0,84,-99.99,,,-99.99,,2013-06-15 00:22:00,
2013-06-14 19:34:00,64.0,59.0,-100.00,SSE,155,4.0,6.0,84,-99.99,,,-99.99,,2013-06-15 00:34:00,
2013-06-14 19:43:00,64.0,59.0,-100.00,SSE,149,8.0,12.0,82,-99.99,,,-99.99,,2013-06-15 00:43:00,
2013-06-14 19:52:00,64.0,59.0,-100.00,SSE,149,7.0,13.0,84,-99.99,,,-99.99,,2013-06-15 00:52:00,
2013-06-14 20:01:00,64.0,59.0,-100.00,SSE,163,8.0,11.0,82,-99.99,,,-99.99,,2013-06-15 01:01:00,
2013-06-14 20:11:00,64.0,58.0,-100.00,SSE,159,8.0,17.0,81,-99.99,,,-99.99,,2013-06-15 01:11:00,
2013-06-14 20:22:00,64.0,59.0,-100.00,SSE,157,9.0,13.0,82,-99.99,,,-99.99,,2013-06-15 01:22:00,
2013-06-14 20:33:00,64.0,59.0,-100.00,SSE,162,7.0,11.0,83,-99.99,,,-99.99,,2013-06-15 01:33:00,
2013-06-14 20:43:00,64.0,59.0,-100.00,SSE,148,8.0,11.0,82,-99.99,,,-99.99,,2013-06-15 01:43:00,
2013-06-14 20:54:00,64.0,59.0,-100.00,SSE,154,6.0,8.0,82,-99.99,,,-99.99,,2013-06-15 01:54:00,
2013-06-14 21:02:00,63.0,57.0,-100.00,SSE,161,8.0,10.0,81,-99.99,,,-99.99,,2013-06-15 02:02:00,
2013-06-14 21:11:00,63.0,57.0,-100.00,SSE,159,6.0,8.0,81,-99.99,,,-99.99,,2013-06-15 02:11:00,
2013-06-14 21:22:00,63.0,56.0,-100.00,South,173,6.0,8.0,79,-99.99,,,-99.99,,2013-06-15 02:22:00,
2013-06-14 21:33:00,63.0,56.0,-100.00,SSE,166,6.0,7.0,78,-99.99,,,-99.99,,2013-06-15 02:33:00,
2013-06-14 21:43:00,63.0,56.0,-100.00,SSE,150,8.0,9.0,79,-99.99,,,-99.99,,2013-06-15 02:43:00,
2013-06-14 21:53:00,63.0,56.0,-100.00,SSE,156,9.0,10.0,80,-99.99,,,-99.99,,2013-06-15 02:53:00,
2013-06-14 22:01:00,63.0,57.0,-100.00,SSE,157,8.0,10.0,81,-99.99,,,-99.99,,2013-06-15 03:01:00,
2013-06-14 22:11:00,63.0,57.0,-100.00,SSE,160,8.0,10.0,83,-99.99,,,-99.99,,2013-06-15 03:11:00,
2013-06-14 22:23:00,63.0,59.0,-100.00,SSE,153,7.0,10.0,87,-99.99,,,-99.99,,2013-06-15 03:23:00,
2013-06-14 22:32:00,63.0,60.0,-100.00,SSE,167,7.0,9.0,90,-99.99,,,-99.99,,2013-06-15 03:32:00,
2013-06-14 22:43:00,63.0,61.0,-100.00,SSE,155,6.0,7.0,93,-99.99,,,-99.99,,2013-06-15 03:43:00,
2013-06-14 22:52:00,63.0,62.0,-100.00,SSE,157,7.0,15.0,97,-99.99,,,-99.99,,2013-06-15 03:52:00,
2013-06-14 23:01:00,63.0,62.0,-100.00,SE,138,5.0,5.0,97,-99.99,,,-99.99,,2013-06-15 04:01:00,
2013-06-14 23:11:00,63.0,61.0,-100.00,SE,146,4.0,7.0,94,-99.99,,,-99.99,,2013-06-15 04:11:00,
2013-06-14 23:22:00,63.0,61.0,-100.00,SSE,157,4.0,6.0,93,-99.99,,,-99.99,,2013-06-15 04:22:00,
2013-06-14 23:34:00,61.0,60.0,-100.00,SSE,166,5.0,6.0,97,-99.99,,,-99.99,,2013-06-15 04:34:00,
2013-06-14 23:43:00,63.0,61.0,-100.00,South,182,5.0,6.0,96,-99.99,,,-99.99,,2013-06-15 04:43:00,
2013-06-14 23:53:00,61.0,59.0,-100.00,SSE,166,3.0,12.0,95,-99.99,,,-99.99,,2013-06-15 04:53:00,